Retour au catalogue

STARLINK-34643

ActifCommunicationsVLEO
NORAD 64923·PAYLOAD·🇺🇸 United States

Lancé Jul 26, 2025 depuis Cape Canaveral Space Force Station

Loading…

Prochains Passages (prochaines 24 heures)

TLE

FraisSource: CelesTrak SupGP

Époque: Sep 14, 2026, 20:59 UTC

1 64923C 25157V   26257.87479167  .00011404  00000+0  33670-3 0  2573
2 64923  53.1571 183.8925 0001255 106.7748 178.8614 15.34405313    15

Suivez STARLINK-34643 en temps réel avec AllMySat

Download on the App Store